OK5TVR-5 Weather Reports


time (UTC)temp
C
wind
direction
speed
KPH
gust
KPH
rain 1hr
cm
rain 24hr
cm
rain mn
cm
humidity
%
barometer
mb
20260507121626 14 222 3.2 6.4 0.00 1.30 0.00 83 1004.8
20260507120126 15 270 8.0 12.9 0.00 1.30 0.00 78 1004.8
20260507114625 13 222 8.0 19.3 0.00 1.30 0.00 83 1004.9
20260507113123 14 222 8.0 19.3 0.00 1.30 0.00 77 1004.9
20260507111624 17 180 6.4 12.9 0.00 1.30 0.00 70 1004.5
20260507104619 13 180 8.0 20.9 0.00 1.30 0.00 75 1004.9
20260507103117 14 222 1.6 6.4 0.00 1.30 0.00 79 1004.8
20260507101618 14 222 9.7 19.3 0.00 1.30 0.00 77 1004.8
20260507100119 12 222 9.7 17.7 0.00 1.30 0.00 84 1005.1
20260507100117 12 222 9.7 17.7 0.00 0.00 0.00 84 1005.1
20260507094618 12 180 6.4 11.3 0.00 1.30 0.00 81 1005.0
20260507093117 13 270 4.8 8.0 0.00 1.30 0.00 83 1005.0
20260507091615 12 222 11.3 22.5 0.00 1.30 0.00 81 1005.1
20260507090113 13 222 11.3 33.8 0.00 1.30 0.00 76 1004.0
20260507084613 12 222 8.0 16.1 0.00 0.00 6.38 82 1005.0
20260507083111 12 90 4.8 12.9 0.00 1.30 0.00 81 1004.0
20260507081610 12 180 12.9 20.9 0.00 1.30 0.00 84 1004.1
20260507080108 13 180 9.7 17.7 0.00 1.30 0.00 82 1004.0
20260507074609 12 180 9.7 20.9 0.00 1.30 0.00 87 1004.1
20260507073105 12 222 4.8 11.3 0.00 1.30 0.00 93 1004.1
20260507071604 11 222 12.9 24.1 0.00 1.30 0.00 92 1004.2
20260507070104 11 222 6.4 12.9 0.00 1.30 0.00 94 1004.1
20260507064604 11 222 4.8 12.9 0.00 1.30 0.00 95 1004.2
20260507063104 11 222 4.8 11.3 0.00 1.30 0.00 96 1004.2
20260507061604 11 222 6.4 16.1 0.00 1.30 0.00 98 1004.2
20260507054600 11 180 4.8 9.7 0.00 1.30 0.00 98 1003.1
20260507054559 11 180 4.8 9.7 0.00 1.30 0.00 98 1003.1
20260507053058 11 222 3.2 16.1 0.00 1.30 0.00 10 1003.1
20260507051555 11 222 3.2 12.9 0.00 1.30 0.00 10
20260507050055 11 222 1.6 6.4 0.00 1.30 0.00 10 1003.1
20260507043054 11 135 0.0 0.0 0.00 1.30 0.00 10 1003.0
20260507034547 11 180 1.6 3.2 0.00 1.30 0.00 10 1002.1
20260507031543 11 222 0.0 0.0 0.00 1.30 0.00 10 1002.0
20260507021539 11 180 0.0 0.0 0.00 1.30 0.00 10 1002.0
20260507014537 10 180 0.0 0.0 0.00 3.84 0.00 10
20260507013036 10 180 0.0 0.0 0.00 1.30 0.00 10 1002.1
20260507011533 10 222 0.0 0.0 0.00 1.30 0.00 10 1002.2
20260507010030 10 180 0.0 1.6 0.00 1.30 0.00 10 1001.1
20260507004530 10 222 1.6 4.8 0.00 1.30 0.00 10 1001.1
20260507003030 10 222 0.0 0.0 0.00 1.30 0.00 10 1001.1
20260507001528 10 270 0.0 0.0 0.00 1.30 0.00 10 1001.0
20260507000029 11 222 0.0 0.0 0.00 1.30 0.00 10
20260506234527 11 180 4.8 9.7 0.00 1.30 0.00 10 1002.1
20260506233025 11 222 4.8 12.9 0.00 1.30 0.00 10 1002.1
20260506231524 11 180 3.2 9.7 0.00 1.30 0.00 10 1001.1
20260506230024 11 135 1.6 4.8 0.00 0.00 0.00 1001.0
20260506230022 11 135 1.6 4.8 0.00 1.30 0.00 10 1001.0
20260506224520 11 222 0.0 0.0 0.03 1.27 0.00 99 1000.9
20260506221518 12 270 1.6 4.8 0.03 1.27 0.00 98 1000.8
20260506214716 12 180 0.0 0.0 0.03 1.27 0.00 10 1000.8
20260506213217 12 222 1.6 1.6 0.03 1.27 0.00 10 1000.8
20260506211716 12 222 6.4 16.1 0.03 1.27 0.00 10 1001.0
20260506210216 12 0 4.8 6.4 0.00 1.27 0.00 99 999.8
20260506204713 12 0 3.2 4.8 0.23 1.02 0.00 99 999.7
20260506203211 12 315 3.2 6.4 0.23 1.02 0.00 10 999.8
20260506201709 12 315 6.4 9.7 0.20 1.02 0.00 10 999.8
20260506200210 12 270 9.7 17.7 0.00 1.02 0.00 10 999.8
20260506200208 12 270 9.7 17.7 0.00 1.02 0.00 10 999.8
20260506194708 13 270 6.4 12.9 0.03 0.03 0.00 98 999.7
20260506193206 13 180 14.5 25.7 0.00 0.03 0.00 92 999.7
20260506191705 15 90 3.2 4.8 0.00 0.03 0.00 82 998.4
20260506190204 15 90 0.0 0.0 0.00 0.03 0.00 80 998.4
20260506184703 15 90 4.8 9.7 0.00 0.03 0.00 75 998.4
20260506183203 15 315 6.4 9.7 0.00 0.03 0.00 75 997.4
20260506181701 15 315 4.8 6.4 0.00 0.03 0.00 72 997.3
20260506180201 15 315 8.0 14.5 0.00 0.03 0.00 70 997.3
20260506174659 16 270 0.0 0.0 0.00 0.03 0.00 67 997.2
20260506173158 16 270 4.8 6.4 0.00 0.03 0.00 70 996.1
20260506171659 17 315 11.3 19.3 0.00 0.03 0.00 69 997.1
20260506170155 18 270 4.8 9.7 0.00 0.03 0.00 73 996.0
20260506164655 18 315 8.0 12.9 0.00 0.03 0.00 70 996.0
20260506163154 18 315 9.7 16.1 0.00 0.03 0.00 69 996.0
20260506161652 19 315 4.8 6.4 0.00 0.03 0.00 64 995.8
20260506160149 19 0 1.6 4.8 0.00 0.03 0.00 64 995.8
20260506153148 20 180 3.2 6.4 0.00 0.03 0.00 65 996.7
20260506151647 20 270 4.8 11.3 0.00 0.03 0.00 66 996.7
20260506150144 20 90 6.4 11.3 0.00 0.03 0.00 66 996.8
20260506144641 21 90 4.8 8.0 0.00 0.03 0.00 58 996.6
20260506143143 21 315 3.2 9.7 0.00 0.03 0.00 59 996.6
20260506143139 21 315 3.2 9.7 0.00 0.03 0.00 59 996.6
20260506141638 21 222 8.0 12.9 0.00 0.03 0.00 54 996.6
20260506141636 21 222 8.0 12.9 0.00 0.03 0.00 54 996.6
20260506140133 -17 222 9.7 0.0 0.00 0.03 0.00 55 0.9
20260506134635 24 45 4.8 9.7 0.00 0.03 0.00 51 996.3
20260506134631 24 45 4.8 9.7 0.00 0.03 0.00 51 996.3
20260506131627 23 90 4.8 6.4 0.00 0.03 0.00 49 996.4
20260506130127 22 90 1.6 6.4 0.00 0.00 0.00
20260506124625 21 180 9.7 17.7 0.00 0.03 0.00 58 997.8
20260506123125 21 222 4.8 8.0 0.00 0.03 0.00 997.7
20260506123123 21 222 4.8 8.0 0.00 0.03 0.00 53 997.7